This demonstration page uses our WeatherBlox Daily Observations layout. Learn more.

Left ArrowRight Arrow

Hourly Observations for October 5, 2022

Temp ( °F °C ) Dew Point ( °F °C ) Humidity (%) Winds ( mph kmh ) Pressure ( in mb ) Visibility ( mi km ) Precip ( " mm )
12:53 am 00:53 Clear 51 10.6 44 6.7 77 77 WSW 8 13 30.11 1020 10 16 0.00 0.00
1:53 am 01:53 Clear 50 10 44 6.7 80 80 VRB 3 6 30.12 1020 10 16 0.00 0.00
2:53 am 02:53 Clear 46 7.8 43 6.1 89 89 WSW 8 13 30.12 1020 10 16 0.00 0.00
3:53 am 03:53 Clear 44 6.7 42 5.6 93 93 W 5 7 30.13 1020 10 16 0.00 0.00
4:53 am 04:53 Clear 44 6.7 42 5.6 93 93 WSW 5 7 30.14 1021 10 16 0.00 0.00
5:53 am 05:53 Clear 43 6.1 42 5.6 97 97 WSW 7 11 30.15 1021 10 16 0.00 0.00
6:53 am 06:53 Clear 42 5.6 40 4.4 92 92 Calm 30.18 1022 10 16 0.00 0.00
7:53 am 07:53 Sunny 42 5.6 40 4.4 92 92 Calm 30.20 1023 10 16 0.00 0.00
8:53 am 08:53 Sunny 48 8.9 44 6.7 86 86 Calm 30.21 1023 10 16 0.00 0.00
9:53 am 09:53 Sunny 56 13.3 46 7.8 69 69 VRB 3 6 30.22 1023 10 16 0.00 0.00
10:53 am 10:53 Sunny 62 16.7 46 7.8 56 56 E 5 7 30.21 1023 10 16 0.00 0.00
11:53 am 11:53 Sunny 67 19.4 47 8.3 49 49 ENE 8 13 30.20 1023 10 16 0.00 0.00
12:53 pm 12:53 Sunny 73 22.8 44 6.7 35 35 E 13 20 30.18 1022 10 16 0.00 0.00
1:53 pm 13:53 Sunny 75 23.9 44 6.7 33 33 ENE 17 28 30.16 1022 10 16 0.00 0.00
2:53 pm 14:53 Sunny 75 23.9 45 7.2 34 34 ENE 21 33 30.16 1022 10 16 0.00 0.00
3:53 pm 15:53 Sunny 75 23.9 45 7.2 34 34 E 20 31 30.16 1021 10 16 0.00 0.00
4:53 pm 16:53 Sunny 74 23.3 44 6.7 34 34 E 17 28 30.17 1022 10 16 0.00 0.00
5:53 pm 17:53 Sunny 71 21.7 44 6.7 38 38 E 21 33 30.18 1022 10 16 0.00 0.00
6:53 pm 18:53 Clear 67 19.4 43 6.1 42 42 E 17 28 30.20 1023 10 16 0.00 0.00
7:53 pm 19:53 Clear 63 17.2 42 5.6 46 46 E 15 24 30.22 1024 10 16 0.00 0.00
8:53 pm 20:53 Clear 60 15.6 38 3.3 44 44 E 20 31 30.27 1025 10 16 0.00 0.00
9:53 pm 21:53 Clear 56 13.3 39 3.9 53 53 E 24 39 30.30 1026 10 16 0.00 0.00
10:53 pm 22:53 Clear 53 11.7 39 3.9 59 59 E 23 37 30.30 1026 10 16 0.00 0.00
11:53 pm 23:53 Mostly Cloudy 50 10 39 3.9 66 66 E 22 35 30.32 1027 10 16 0.00 0.00

Powered by AerisWeather